QPF
0.00 0.00 0.00 0.00 0.00 0.00 0.00 0.00 0.00 0.00 0.00 0.00 0.00 0.00 0.00 0.00 0.00 0.00 0.00 0.00 0.00 0.00 0.00 0.00 0.00 0.00 0.00 0.00 0.01 0.00 0.00 0.00 0.00 0.00 0.00 0.00 0.00 0.00 0.00 0.00 0.00 0.00 0.00 0.00
0.00 0.00 0.00 0.00 0.00 0.00 0.00 0.00 0.00 0.00 0.00 0.00 0.00 0.00 0.00 0.00 0.00 0.00 0.00 0.00 0.00 0.00 0.00 0.00 0.00 0.00 0.00 0.00 0.01 0.01 0.00 0.00 0.00 0.00 0.00 0.00 0.00 0.00 0.00 0.00 0.00 0.00 0.00 0.00
0.00 0.00 0.00 0.00 0.00 0.00 0.00 0.00 0.00 0.00 0.00 0.00 0.00 0.00 0.00 0.00 0.01 0.00 0.00 0.00 0.00 0.00 0.00 0.00 0.00 0.00 0.00 0.00 0.00 0.01 0.00 0.00 0.00 0.00 0.00 0.00 0.00 0.00 0.00 0.00 0.00 0.00 0.00 0.00
0.00 0.00 0.00 0.00 0.00 0.00 0.00 0.00 0.00 0.00 0.00 0.00 0.00 0.00 0.00 0.00 0.00 0.00 0.00 0.00 0.00 0.00 0.00 0.00 0.00 0.00 0.00 0.00 0.00 0.01 0.05 0.03 0.01 0.01 0.01 0.00 0.00 0.00 0.00 0.00 0.00 0.00 0.00 0.00
0.00 0.00 0.00 0.00 0.00 0.00 0.00 0.00 0.00 0.00 0.00 0.00 0.00 0.00 0.00 0.00 0.00 0.00 0.00 0.00 0.00 0.00 0.00 0.00 0.00 0.00 0.00 0.01 0.00 0.02 0.05 0.05 0.08 0.04 0.02 0.01 0.00 0.00 0.00 0.00 0.00 0.00 0.00 0.00
0.00 0.00 0.00 0.00 0.00 0.00 0.00 0.00 0.00 0.00 0.00 0.00 0.00 0.00 0.00 0.00 0.00 0.00 0.00 0.00 0.00 0.00 0.00 0.00 0.00 0.00 0.00 0.01 0.01 0.03 0.05 0.04 0.10 0.09 0.02 0.01 0.00 0.00 0.00 0.00 0.00 0.00 0.00 0.00
0.00 0.00 0.00 0.00 0.00 0.00 0.00 0.00 0.00 0.00 0.00 0.00 0.00 0.00 0.00 0.00 0.00 0.00 0.00 0.00 0.00 0.00 0.00 0.00 0.00 0.00 0.00 0.01 0.05 0.10 0.06 0.07 0.06 0.02 0.02 0.00 0.00 0.00 0.00 0.00 0.00 0.00 0.00 0.00
0.00 0.00 0.00 0.00 0.00 0.00 0.00 0.00 0.00 0.00 0.00 0.00 0.00 0.00 0.00 0.00 0.00 0.00 0.00 0.00 0.00 0.00 0.00 0.00 0.00 0.00 0.00 0.01 0.07 0.18 0.14 0.09 0.05 0.01 0.00 0.00 0.00 0.00 0.00 0.00 0.00 0.00 0.00 0.00
0.00 0.00 0.00 0.00 0.00 0.00 0.00 0.00 0.00 0.00 0.00 0.00 0.00 0.00 0.00 0.00 0.00 0.00 0.00 0.00 0.00 0.00 0.00 0.00 0.00 0.00 0.00 0.03 0.07 0.13 0.09 0.03 0.01 0.00 0.00 0.00 0.00 0.00 0.00 0.00 0.00 0.01 0.03 0.07
0.00 0.00 0.00 0.00 0.00 0.00 0.00 0.00 0.00 0.00 0.00 0.00 0.00 0.00 0.00 0.00 0.00 0.00 0.00 0.00 0.00 0.00 0.00 0.00 0.00 0.00 0.00 0.01 0.02 0.04 0.01 0.01 0.00 0.00 0.00 0.00 0.00 0.00 0.00 0.00 0.00 0.02 0.04 0.07
0.00 0.00 0.00 0.00 0.00 0.00 0.00 0.00 0.00 0.00 0.00 0.00 0.00 0.00 0.00 0.00 0.00 0.00 0.00 0.00 0.00 0.00 0.00 0.00 0.00 0.00 0.00 0.00 0.00 0.00 0.00 0.00 0.00 0.00 0.00 0.00 0.00 0.00 0.00 0.01 0.04 0.07 0.07 0.06
0.00 0.00 0.00 0.00 0.00 0.00 0.00 0.00 0.00 0.00 0.00 0.00 0.00 0.00 0.00 0.00 0.00 0.00 0.00 0.00 0.00 0.00 0.00 0.00 0.00 0.00 0.00 0.00 0.00 0.00 0.00 0.00 0.00 0.00 0.00 0.00 0.00 0.01 0.02 0.02 0.01 0.03 0.05 0.05
0.00 0.00 0.00 0.00 0.00 0.00 0.00 0.00 0.00 0.00 0.00 0.00 0.00 0.00 0.00 0.00 0.00 0.00 0.00 0.00 0.00 0.00 0.00 0.00 0.00 0.00 0.00 0.00 0.01 0.00 0.00 0.00 0.00 0.01 0.01 0.02 0.03 0.03 0.02 0.01 0.01 0.01 0.01 0.00
0.00 0.00 0.00 0.00 0.00 0.00 0.00 0.00 0.00 0.00 0.00 0.00 0.00 0.00 0.00 0.00 0.00 0.00 0.00 0.00 0.00 0.00 0.00 0.00 0.00 0.00 0.00 0.02 0.02 0.01 0.00 0.00 0.01 0.02 0.03 0.04 0.03 0.03 0.02 0.00 0.00 0.00 0.00 0.00
0.00 0.00 0.00 0.00 0.00 0.00 0.00 0.00 0.00 0.00 0.00 0.00 0.00 0.00 0.00 0.00 0.00 0.00 0.00 0.00 0.00 0.00 0.00 0.00 0.00 0.01 0.01 0.01 0.02 0.01 0.02 0.03 0.04 0.05 0.05 0.04 0.02 0.01 0.00 0.00 0.00 0.00 0.00 0.00
0.00 0.00 0.00 0.00 0.00 0.00 0.00 0.00 0.00 0.00 0.00 0.00 0.00 0.00 0.00 0.00 0.00 0.00 0.00 0.00 0.00 0.00 0.00 0.00 0.01 0.01 0.00 0.00 0.00 0.01 0.03 0.05 0.06 0.04 0.02 0.01 0.00 0.00 0.00 0.00 0.00 0.00 0.00 0.00
0.00 0.00 0.00 0.00 0.00 0.00 0.00 0.00 0.00 0.00 0.00 0.00 0.00 0.00 0.00 0.00 0.00 0.00 0.00 0.00 0.00 0.00 0.00 0.00 0.00 0.00 0.00 0.00 0.01 0.02 0.02 0.02 0.02 0.01 0.00 0.00 0.00 0.00 0.00 0.00 0.00 0.01 0.01 0.00
0.00 0.00 0.00 0.00 0.00 0.00 0.00 0.00 0.00 0.00 0.00 0.00 0.00 0.00 0.00 0.00 0.00 0.00 0.00 0.00 0.00 0.00 0.00 0.00 0.00 0.00 0.00 0.00 0.00 0.00 0.00 0.00 0.00 0.00 0.00 0.00 0.00 0.00 0.00 0.02 0.02 0.01 0.00 0.00
0.00 0.00 0.00 0.00 0.00 0.00 0.00 0.00 0.00 0.00 0.00 0.00 0.00 0.00 0.00 0.00 0.00 0.00 0.00 0.00 0.00 0.00 0.00 0.00 0.00 0.00 0.00 0.00 0.00 0.00 0.00 0.00 0.00 0.00 0.00 0.00 0.00 0.01 0.03 0.02 0.00 0.00 0.00 0.00
0.00 0.01 0.00 0.00 0.00 0.00 0.00 0.00 0.00 0.00 0.00 0.00 0.00 0.00 0.00 0.00 0.00 0.00 0.00 0.00 0.00 0.00 0.00 0.00 0.00 0.00 0.00 0.00 0.00 0.00 0.00 0.00 0.00 0.00 0.00 0.00 0.02 0.01 0.00 0.00 0.00 0.00 0.00 0.00
0.01 0.02 0.01 0.00 0.00 0.00 0.00 0.00 0.00 0.00 0.00 0.00 0.00 0.00 0.00 0.00 0.00 0.00 0.00 0.00 0.00 0.00 0.00 0.00 0.00 0.00 0.00 0.00 0.00 0.00 0.00 0.00 0.00 0.00 0.01 0.01 0.00 0.00 0.00 0.00 0.00 0.00 0.00 0.00
0.00 0.01 0.00 0.00 0.00 0.00 0.00 0.00 0.00 0.00 0.00 0.00 0.00 0.00 0.00 0.00 0.00 0.00 0.00 0.00 0.00 0.00 0.00 0.00 0.00 0.00 0.00 0.00 0.00 0.00 0.00 0.00 0.00 0.00 0.00 0.00 0.00 0.00 0.00 0.00 0.00 0.00 0.00 0.00
0.00 0.00 0.00 0.00 0.00 0.00 0.00 0.00 0.00 0.00 0.00 0.00 0.00 0.00 0.00 0.00 0.00 0.00 0.00 0.00 0.00 0.00 0.00 0.00 0.00 0.00 0.00 0.00 0.00 0.00 0.00 0.00 0.00 0.00 0.00 0.00 0.00 0.00 0.00 0.00 0.00 0.00 0.00 0.00
0.00 0.00 0.00 0.00 0.00 0.00 0.00 0.00 0.00 0.00 0.00 0.00 0.00 0.00 0.00 0.00 0.00 0.00 0.00 0.00 0.00 0.00 0.00 0.00 0.00 0.00 0.00 0.00 0.00 0.00 0.00 0.00 0.00 0.00 0.00 0.00 0.00 0.00 0.00 0.00 0.00 0.00 0.00 0.00
0.00 0.00 0.00 0.00 0.00 0.00 0.00 0.00 0.00 0.00 0.00 0.00 0.00 0.00 0.00 0.00 0.00 0.00 0.00 0.00 0.00 0.00 0.00 0.00 0.00 0.00 0.00 0.00 0.00 0.00 0.00 0.00 0.00 0.00 0.00 0.00 0.00 0.00 0.00 0.00 0.00 0.00 0.00 0.00
0.00 0.00 0.00 0.00 0.00 0.00 0.00 0.00 0.00 0.00 0.00 0.00 0.00 0.00 0.00 0.00 0.00 0.00 0.00 0.00 0.00 0.00 0.00 0.00 0.00 0.00 0.00 0.00 0.00 0.00 0.00 0.00 0.00 0.00 0.00 0.00 0.00 0.00 0.00 0.00 0.00 0.00 0.00 0.00
MSLP
1010.89 1011.66 1011.64 1011.46 1011.43 1011.56 1011.70 1011.86 1012.02 1011.39 1010.83 1011.45 1011.31 1011.62 1011.95 1012.03 1012.53 1013.50 1014.07 1014.47 1014.62 1014.69 1014.72 1015.40 1015.89 1016.30 1016.86 1017.40 1017.90 1018.28 1018.73 1019.29 1019.69 1020.50 1021.07 1021.37 1021.57 1021.74 1021.91 1022.06 1022.20 1022.34 1022.60 1022.77
1011.44 1011.52 1011.05 1011.45 1011.27 1011.09 1011.64 1012.02 1011.90 1011.08 1010.59 1010.85 1011.16 1011.41 1011.61 1012.06 1012.00 1012.28 1013.09 1013.68 1014.16 1014.38 1014.68 1014.95 1015.39 1015.97 1016.57 1017.07 1017.51 1018.11 1018.48 1019.00 1019.60 1020.01 1020.42 1020.84 1021.30 1021.96 1022.14 1022.28 1022.21 1022.15 1022.48 1022.76
1011.57 1011.11 1010.90 1011.02 1011.22 1011.22 1011.50 1011.82 1011.80 1011.61 1011.19 1011.10 1011.23 1011.42 1011.43 1011.35 1011.55 1011.85 1012.25 1012.25 1013.06 1013.37 1013.83 1014.38 1014.90 1015.32 1015.90 1016.43 1016.68 1017.28 1017.73 1018.38 1019.10 1019.75 1020.38 1020.92 1021.52 1022.02 1022.30 1022.25 1022.17 1022.31 1022.34 1022.53
1011.42 1010.96 1010.91 1010.95 1010.89 1010.91 1011.20 1011.24 1011.32 1011.54 1011.88 1011.90 1011.50 1011.74 1011.19 1010.83 1011.01 1011.20 1011.54 1011.99 1012.33 1012.74 1013.25 1013.74 1014.25 1014.62 1014.74 1015.03 1016.03 1016.70 1017.42 1018.26 1018.96 1019.38 1019.84 1020.29 1020.77 1021.24 1021.45 1021.53 1021.98 1022.22 1022.38 1022.60
1010.98 1010.80 1010.89 1010.77 1010.37 1010.32 1010.72 1010.80 1011.23 1011.57 1011.97 1012.22 1011.75 1011.71 1010.78 1010.69 1010.96 1010.63 1010.66 1011.27 1011.61 1011.80 1012.27 1012.72 1013.13 1013.37 1014.64 1015.71 1016.17 1016.82 1017.61 1018.29 1018.57 1018.96 1019.32 1019.83 1020.21 1020.56 1021.00 1021.61 1022.19 1022.51 1022.74 1023.22
1010.78 1010.47 1010.51 1010.22 1009.98 1009.95 1010.31 1011.01 1011.74 1012.45 1012.82 1012.86 1012.03 1011.73 1010.88 1010.25 1009.48 1009.40 1009.84 1010.47 1010.96 1011.48 1012.04 1012.50 1013.02 1013.99 1014.77 1015.61 1016.40 1016.70 1016.96 1017.30 1017.88 1018.35 1018.80 1019.34 1019.92 1020.57 1021.17 1021.80 1022.40 1022.87 1023.47 1023.91
1010.92 1010.60 1010.09 1010.08 1010.21 1010.16 1010.45 1011.91 1013.14 1013.77 1013.93 1013.57 1012.48 1011.97 1010.20 1009.02 1008.74 1008.73 1008.94 1009.41 1010.20 1010.98 1011.73 1012.43 1013.14 1013.71 1014.45 1015.22 1015.81 1016.50 1016.95 1017.34 1017.51 1018.23 1018.62 1019.05 1019.51 1020.07 1020.74 1021.32 1021.97 1022.75 1023.49 1023.99
1011.12 1010.97 1010.17 1009.93 1010.06 1010.24 1010.98 1012.02 1013.52 1014.39 1015.09 1014.34 1012.96 1012.02 1009.86 1008.94 1008.48 1008.21 1008.26 1008.73 1009.54 1010.67 1011.43 1012.11 1012.64 1013.23 1013.97 1014.58 1015.18 1016.04 1016.29 1016.91 1017.27 1017.64 1018.08 1018.63 1019.09 1019.88 1020.60 1021.12 1021.78 1022.55 1023.27 1024.02
1010.86 1010.72 1010.28 1010.06 1010.08 1010.30 1011.18 1012.00 1012.72 1014.18 1015.44 1015.16 1013.69 1011.96 1009.71 1008.75 1008.82 1008.73 1008.88 1009.41 1009.86 1010.46 1011.14 1011.59 1012.15 1012.82 1013.56 1014.12 1014.71 1015.28 1015.83 1016.42 1016.89 1017.26 1017.88 1018.47 1019.01 1019.63 1020.36 1020.98 1021.67 1023.01 1023.59 1024.10
1009.84 1010.64 1010.42 1010.38 1010.41 1010.35 1010.97 1011.54 1012.75 1014.19 1015.35 1015.33 1013.97 1012.63 1010.91 1009.51 1008.88 1008.94 1009.51 1009.78 1010.12 1010.54 1011.21 1011.68 1012.15 1012.55 1013.13 1013.59 1014.27 1015.12 1015.48 1015.80 1016.32 1017.07 1017.60 1018.08 1018.64 1019.23 1019.83 1020.91 1021.67 1022.27 1023.33 1024.30
1009.68 1010.29 1011.05 1010.84 1010.73 1010.54 1011.21 1011.59 1012.43 1013.73 1014.91 1015.11 1014.55 1012.65 1010.39 1009.59 1009.09 1009.02 1009.09 1009.88 1010.41 1010.70 1011.04 1011.44 1011.75 1012.25 1012.70 1013.43 1013.98 1014.42 1015.06 1015.51 1016.25 1016.75 1017.31 1017.89 1018.80 1019.54 1020.12 1021.08 1021.67 1022.44 1023.00 1023.40
1009.32 1009.98 1010.91 1010.21 1010.11 1010.17 1010.54 1010.97 1011.98 1013.74 1014.88 1015.13 1014.37 1012.13 1009.92 1009.40 1009.02 1009.05 1009.13 1009.52 1009.99 1010.44 1010.68 1011.02 1011.33 1011.87 1012.56 1012.98 1013.50 1013.98 1014.65 1015.40 1016.26 1016.91 1017.75 1018.59 1019.31 1020.07 1020.67 1021.27 1021.77 1022.22 1022.92 1022.94
1009.12 1010.20 1010.87 1010.69 1010.49 1010.53 1010.71 1010.61 1011.30 1012.54 1013.75 1014.46 1014.13 1011.94 1009.96 1009.46 1009.17 1008.97 1009.30 1009.40 1009.91 1010.48 1010.86 1011.19 1011.62 1011.77 1012.03 1012.54 1013.34 1014.13 1014.70 1015.48 1016.11 1016.82 1017.80 1018.50 1019.54 1020.33 1020.98 1021.47 1021.96 1022.31 1022.50 1023.17
1007.82 1009.36 1009.92 1010.15 1010.05 1010.04 1010.23 1010.10 1010.70 1011.81 1013.30 1013.27 1012.77 1011.44 1010.23 1009.59 1009.39 1009.16 1009.22 1009.33 1009.66 1010.15 1010.58 1011.06 1011.69 1012.00 1012.47 1013.19 1013.90 1014.57 1015.38 1015.79 1016.22 1016.77 1017.68 1018.56 1019.18 1020.12 1020.66 1021.20 1021.87 1022.20 1022.74 1022.85
1007.95 1009.41 1010.06 1010.05 1010.07 1010.02 1009.97 1009.97 1010.48 1011.27 1011.70 1011.99 1011.55 1011.30 1010.29 1009.94 1009.62 1009.22 1009.07 1009.44 1009.75 1010.00 1010.67 1011.07 1011.63 1012.36 1012.89 1013.45 1014.33 1015.11 1015.79 1016.38 1016.80 1017.57 1018.25 1019.09 1019.79 1020.33 1020.93 1021.37 1022.08 1022.25 1022.34 1023.01
1008.62 1009.93 1010.42 1011.15 1011.04 1010.62 1010.57 1010.22 1010.35 1010.64 1010.80 1011.06 1010.90 1010.82 1010.26 1010.06 1010.12 1010.05 1010.00 1010.04 1010.45 1010.47 1010.75 1011.06 1011.66 1012.40 1013.12 1013.89 1014.71 1015.43 1016.13 1016.85 1017.36 1018.22 1018.83 1019.64 1020.35 1020.80 1021.40 1021.94 1022.06 1022.40 1022.69 1022.68
1009.38 1010.39 1011.79 1012.51 1012.16 1011.78 1011.50 1010.33 1010.05 1010.01 1009.98 1010.28 1010.58 1010.32 1010.49 1011.09 1011.24 1011.39 1011.46 1011.45 1011.51 1011.63 1011.93 1012.27 1012.74 1013.23 1013.81 1014.36 1014.92 1015.74 1016.52 1017.21 1017.94 1018.65 1019.33 1019.85 1020.67 1021.40 1021.84 1021.97 1022.29 1022.59 1022.99 1023.01
1009.66 1011.08 1012.49 1013.89 1013.77 1012.63 1010.36 1009.68 1009.43 1009.70 1009.90 1009.99 1010.15 1010.45 1011.15 1011.78 1012.35 1012.67 1012.69 1012.77 1013.06 1013.26 1013.49 1013.78 1014.08 1014.49 1015.02 1015.44 1016.01 1016.52 1017.22 1017.94 1018.62 1019.33 1020.01 1020.69 1021.22 1021.48 1021.81 1022.26 1022.64 1022.79 1022.77 1022.61
1009.37 1011.50 1013.73 1014.47 1014.19 1012.66 1010.74 1009.98 1009.62 1009.57 1010.18 1010.20 1010.66 1011.35 1011.98 1012.41 1012.71 1013.52 1013.75 1013.91 1014.33 1014.72 1015.08 1015.31 1015.46 1015.72 1016.07 1016.49 1017.01 1017.44 1018.28 1018.93 1019.57 1020.35 1020.91 1021.35 1021.47 1021.85 1022.08 1022.31 1022.46 1022.60 1022.54 1022.36
1010.62 1011.47 1013.14 1014.79 1014.30 1012.63 1010.27 1009.05 1008.74 1009.28 1010.24 1010.41 1010.93 1011.67 1012.31 1012.89 1014.12 1014.82 1015.16 1015.57 1015.75 1015.96 1016.21 1016.49 1016.74 1016.93 1017.18 1017.84 1017.96 1018.44 1019.34 1019.86 1020.41 1020.76 1021.26 1021.62 1021.66 1021.97 1022.11 1022.22 1022.37 1022.21 1022.13 1022.07
1012.05 1013.09 1013.91 1014.71 1013.88 1012.04 1009.83 1009.04 1009.03 1009.93 1010.38 1010.08 1010.96 1011.77 1012.63 1013.71 1014.51 1015.09 1016.01 1016.76 1017.04 1017.17 1017.32 1017.48 1017.68 1018.01 1018.46 1018.72 1018.93 1019.58 1020.15 1020.57 1020.98 1021.15 1021.31 1021.50 1021.77 1021.89 1022.02 1022.16 1022.20 1022.13 1022.06 1021.94
1010.82 1012.56 1013.78 1013.61 1013.21 1011.48 1009.31 1009.60 1009.43 1009.26 1009.76 1010.27 1011.31 1012.10 1013.15 1014.20 1015.24 1016.07 1017.00 1017.67 1017.95 1018.13 1018.34 1018.45 1018.60 1019.10 1019.42 1019.66 1019.87 1020.49 1020.88 1021.15 1021.31 1021.59 1021.76 1021.85 1021.95 1022.01 1022.05 1022.16 1022.04 1021.91 1021.87 1021.80
1009.83 1009.58 1010.83 1011.26 1010.71 1009.71 1009.43 1009.37 1009.03 1009.09 1009.83 1011.09 1011.66 1012.52 1013.28 1014.65 1015.98 1016.98 1017.87 1018.44 1018.73 1018.96 1019.13 1019.33 1019.46 1019.94 1020.39 1020.61 1020.94 1021.31 1021.49 1021.64 1021.82 1021.96 1022.07 1022.05 1022.01 1022.01 1021.95 1022.00 1021.86 1021.72 1021.57 1021.36
1009.01 1008.68 1009.42 1010.38 1010.21 1009.99 1009.87 1010.07 1010.00 1010.02 1010.63 1011.47 1012.06 1012.87 1013.79 1015.12 1016.53 1017.54 1018.39 1019.01 1019.34 1019.61 1019.86 1020.11 1020.39 1020.81 1021.24 1021.62 1021.88 1022.14 1022.12 1022.15 1022.31 1022.47 1022.53 1022.49 1022.51 1022.28 1022.01 1021.84 1021.72 1021.60 1021.33 1021.00
1008.96 1008.44 1009.27 1010.17 1010.34 1010.53 1010.58 1010.98 1011.26 1011.54 1011.91 1012.47 1013.05 1013.64 1014.60 1015.59 1017.12 1017.85 1018.78 1019.42 1019.85 1020.19 1020.52 1020.83 1021.23 1021.78 1022.31 1022.64 1022.92 1023.04 1022.99 1022.83 1022.87 1022.88 1022.90 1022.83 1022.72 1022.52 1022.18 1021.89 1021.66 1021.27 1020.72 1020.62
1008.13 1007.49 1008.12 1008.70 1008.51 1009.11 1010.45 1011.54 1012.33 1012.51 1012.99 1013.47 1013.75 1015.10 1015.95 1016.40 1017.27 1018.24 1019.23 1019.87 1020.37 1020.84 1021.27 1021.81 1022.38 1022.77 1023.29 1023.48 1023.71 1023.72 1023.59 1023.48 1023.53 1023.52 1023.49 1023.40 1023.20 1022.89 1022.48 1021.90 1021.05 1020.86 1020.23 1019.62
Thickness
5644 5626 5620 5632 5638 5639 5635 5633 5625 5637 5649 5643 5641 5644 5648 5650 5651 5642 5642 5641 5642 5643 5646 5642 5641 5639 5636 5633 5630 5628 5624 5621 5619 5612 5606 5605 5604 5602 5601 5599 5596 5593 5590 5589
5632 5623 5639 5640 5641 5643 5639 5629 5627 5642 5651 5646 5639 5641 5649 5646 5650 5654 5648 5647 5644 5646 5645 5646 5645 5641 5635 5632 5630 5626 5625 5621 5616 5612 5609 5605 5604 5598 5595 5593 5593 5593 5588 5584
5623 5635 5645 5642 5637 5640 5638 5629 5629 5632 5645 5649 5644 5639 5647 5655 5656 5655 5657 5662 5655 5653 5651 5650 5646 5643 5639 5635 5633 5630 5628 5623 5616 5610 5606 5602 5597 5593 5590 5590 5589 5584 5581 5576
5632 5641 5639 5637 5637 5641 5626 5642 5640 5637 5634 5620 5645 5616 5641 5651 5654 5658 5660 5657 5657 5657 5656 5654 5650 5647 5646 5645 5636 5631 5625 5619 5613 5610 5607 5604 5600 5596 5593 5590 5583 5577 5572 5566
5632 5636 5635 5636 5643 5651 5640 5651 5648 5646 5636 5633 5637 5626 5641 5650 5646 5656 5662 5657 5659 5662 5662 5660 5657 5655 5644 5636 5632 5627 5620 5615 5614 5612 5609 5605 5601 5597 5590 5582 5574 5567 5561 5552
5638 5647 5643 5643 5654 5656 5657 5647 5637 5629 5624 5609 5634 5629 5630 5644 5661 5667 5667 5663 5661 5661 5660 5659 5655 5647 5639 5633 5627 5625 5624 5621 5617 5613 5609 5604 5598 5590 5581 5573 5564 5556 5547 5538
5631 5636 5648 5651 5645 5651 5647 5625 5599 5600 5591 5602 5631 5624 5641 5666 5669 5669 5670 5671 5663 5660 5656 5652 5647 5645 5639 5633 5629 5624 5621 5618 5617 5611 5606 5600 5594 5587 5578 5568 5559 5547 5536 5527
5610 5607 5640 5652 5648 5642 5638 5628 5596 5604 5585 5592 5626 5618 5642 5668 5671 5678 5677 5675 5668 5661 5656 5652 5650 5646 5641 5637 5632 5624 5624 5619 5615 5610 5604 5597 5590 5579 5569 5560 5550 5540 5529 5517
5610 5618 5639 5643 5649 5648 5635 5622 5631 5601 5591 5578 5604 5626 5655 5667 5668 5666 5664 5665 5662 5661 5659 5656 5652 5647 5642 5637 5632 5626 5622 5616 5611 5607 5598 5589 5581 5572 5562 5554 5544 5525 5514 5504
5634 5618 5634 5636 5642 5644 5636 5636 5611 5598 5597 5595 5603 5613 5619 5650 5661 5666 5655 5657 5659 5658 5655 5652 5650 5646 5641 5637 5631 5623 5620 5616 5608 5599 5592 5584 5575 5566 5559 5544 5531 5522 5506 5495
5635 5625 5620 5628 5624 5626 5622 5619 5621 5611 5592 5587 5580 5605 5637 5647 5658 5660 5664 5655 5652 5652 5653 5651 5650 5646 5641 5633 5628 5623 5616 5610 5601 5593 5585 5576 5565 5555 5545 5532 5522 5511 5501 5493
5634 5618 5603 5625 5638 5639 5632 5625 5618 5586 5603 5587 5575 5601 5650 5649 5654 5655 5658 5658 5655 5653 5652 5651 5650 5645 5636 5632 5628 5622 5614 5605 5593 5582 5572 5562 5552 5541 5530 5519 5511 5501 5490 5484
5631 5608 5592 5609 5621 5626 5620 5627 5626 5610 5593 5588 5573 5600 5647 5645 5648 5650 5648 5651 5649 5647 5646 5644 5641 5640 5637 5633 5623 5613 5603 5593 5585 5576 5564 5554 5540 5529 5519 5510 5501 5492 5483 5469
5643 5618 5615 5602 5617 5626 5623 5633 5626 5613 5580 5597 5593 5618 5639 5642 5640 5645 5643 5645 5644 5645 5643 5638 5634 5631 5626 5619 5608 5599 5589 5583 5575 5566 5554 5543 5533 5521 5512 5503 5491 5480 5467 5459
5636 5617 5620 5622 5624 5626 5626 5628 5620 5615 5613 5602 5615 5609 5627 5631 5636 5637 5641 5646 5642 5641 5636 5632 5626 5620 5614 5606 5595 5586 5578 5569 5560 5550 5541 5531 5519 5510 5498 5488 5475 5466 5457 5445
5629 5610 5621 5611 5612 5616 5615 5619 5620 5618 5622 5611 5615 5614 5625 5631 5628 5625 5629 5631 5631 5633 5632 5627 5620 5612 5604 5592 5582 5574 5565 5556 5547 5538 5528 5516 5503 5494 5482 5471 5462 5451 5441 5434
5618 5603 5588 5595 5595 5597 5579 5603 5613 5619 5620 5619 5605 5617 5621 5614 5613 5612 5614 5616 5617 5616 5613 5609 5603 5595 5586 5577 5570 5561 5550 5541 5532 5522 5511 5501 5488 5476 5466 5458 5447 5437 5425 5416
5607 5597 5574 5568 5572 5558 5610 5618 5620 5613 5610 5611 5613 5611 5606 5601 5598 5594 5596 5602 5597 5592 5588 5584 5579 5572 5564 5558 5551 5544 5534 5525 5515 5503 5492 5480 5470 5462 5451 5440 5430 5420 5411 5405
5614 5586 5564 5566 5567 5584 5606 5608 5606 5606 5604 5609 5601 5596 5593 5592 5594 5588 5582 5579 5573 5568 5563 5559 5558 5555 5550 5543 5535 5527 5515 5505 5494 5482 5472 5462 5454 5444 5435 5426 5417 5408 5400 5392
5596 5589 5581 5538 5562 5562 5599 5614 5620 5610 5581 5605 5599 5591 5587 5588 5572 5572 5563 5557 5554 5551 5548 5544 5540 5535 5529 5520 5515 5506 5494 5486 5475 5466 5455 5446 5439 5430 5421 5412 5403 5396 5388 5380
5560 5552 5563 5518 5543 5570 5601 5613 5613 5582 5588 5599 5594 5588 5582 5580 5570 5557 5547 5539 5536 5533 5531 5528 5523 5517 5509 5504 5497 5486 5475 5467 5457 5450 5442 5434 5424 5416 5407 5397 5388 5381 5373 5364
5583 5562 5538 5532 5529 5569 5606 5601 5592 5597 5596 5593 5585 5581 5570 5553 5546 5539 5531 5525 5522 5518 5515 5511 5506 5497 5490 5484 5477 5466 5458 5449 5441 5432 5424 5416 5408 5400 5392 5382 5374 5366 5357 5348
5585 5589 5576 5578 5578 5597 5598 5600 5600 5597 5592 5582 5578 5571 5561 5546 5535 5526 5517 5512 5508 5503 5497 5492 5487 5478 5469 5463 5455 5446 5438 5431 5423 5416 5408 5400 5393 5384 5376 5368 5360 5350 5339 5330
5587 5592 5581 5583 5589 5589 5589 5583 5584 5585 5577 5571 5569 5562 5553 5537 5525 5515 5506 5498 5491 5485 5480 5475 5468 5460 5451 5443 5434 5426 5419 5413 5405 5397 5389 5381 5373 5366 5359 5350 5341 5333 5323 5314
5577 5586 5575 5569 5577 5580 5578 5567 5563 5561 5557 5553 5548 5546 5536 5525 5510 5502 5492 5483 5476 5471 5463 5457 5448 5439 5428 5419 5411 5404 5399 5393 5386 5378 5370 5362 5355 5348 5342 5335 5326 5318 5313 5298
5576 5582 5576 5575 5588 5584 5574 5556 5550 5549 5544 5540 5537 5523 5515 5510 5500 5489 5477 5470 5463 5454 5445 5435 5425 5416 5406 5399 5391 5385 5380 5374 5366 5358 5350 5342 5336 5329 5322 5318 5318 5307 5298 5292